Zurück zum Katalog

STARLINK-36960

AktivKommunikationSSO
NORAD 68225·PAYLOAD·🇺🇸 United States

Gestartet Mar 17, 2026 von Vandenberg Space Force Base

Loading…

Nächste Überflüge (nächste 24 Stunden)

TLE

AktuellSource: CelesTrak SupGP

Epoche: Sep 15, 2026, 04:03 UTC

1 68225C 26053U   26258.16923611  .00007786  00000+0  24158-3 0  2589
2 68225  97.2851 132.0583 0002059  94.5305  89.8042 15.33449835    18

Verfolge STARLINK-36960 in Echtzeit mit AllMySat

Download on the App Store